Location: Sungai Buloh
(3.1000°N, 113.0000°E)
Time: 19:30:13
(UTC+00:00)

Cosmos 921 Rocket - Pass Details

Date: 12 January 2026
Orbit: 564 x 620 km, 75.8° (Epoch: 11 February)

Event Time Altitude Azimuth Distance (km) Brightness Sun altitude
Rises 21:53:46 0° 201° (SSW) 2,886 6.5 -11.1°
Reaches altitude 10° 21:56:05 10° 207° (SSW) 1,974 5.6 -10.5°
Maximum altitude 22:00:19 47° 280° (W) 815 3.3 -9.5°
Drops below altitude 10° 22:04:29 10° 354° (N) 1,943 5.4 -8.6°
Sets 22:06:45 0° 1° (N) 2,835 6.2 -8.0°
